Weather History for KTDZ - February, 2013

Change the Weather History Date:

Saturday, February 23, 2013

  Actual Average (KTOL) Record (KTOL)
Temperature  
Mean Temperature 32 °F 30 °F  
Max Temperature 35 °F 38 °F 65 °F (2000)
Min Temperature 28 °F 22 °F -8 °F (1978)
Degree Days  
Heating Degree Days 32 35  
Month to date heating degree days 859  
Since 1 July heating degree days 4408  
Cooling Degree Days 0 0  
Month to date cooling degree days 0  
Year to date cooling degree days 0  
Moisture  
Dew Point 23 °F    
Average Humidity 72    
Maximum Humidity 87    
Minimum Humidity 61    
Precipitation  
Precipitation 0.00 in 0.08 in 0.94 in (1975)
Month to date precipitation 1.66  
Year to date precipitation 3.71  
Snow  
Snow 0.00 in 0.40 in - ()
Month to date snowfall 8.0  
Since 1 July snowfall 29.1  
Snow Depth -    
Sea Level Pressure  
Sea Level Pressure 29.94 in    
Wind  
Wind Speed 11 mph (WSW)    
Max Wind Speed 17 mph    
Max Gust Speed 24 mph    
Visibility 10 miles    
Events      
T = Trace of Precipitation, MM = Missing Value Source: NWS Daily Summary

Daily Weather History Graph

Daily Weather History Graph

Search for Another Location

Airport or City:

Trip Planner

Search our weather history database for the weather conditions in past years. The results will help you decide how hot, cold, wet, or windy it might be!

Date:

Astronomy

Feb. 23, 2013 Rise Set
Actual Time 7:17 AM EST 6:17 PM EST
Civil Twilight 6:49 AM EST 6:45 PM EST
Nautical Twilight 6:17 AM EST 7:17 PM EST
Astronomical Twilight 5:45 AM EST 7:50 PM EST
Moon 4:26 PM EST (2/23) 5:40 AM EST (2/23)
Length of Visible Light 11h 56m
Length of Day
11h 00m
Waxing Gibbous, 95% of the Moon is Illuminated
Feb 23
Waxing Gibbous
Feb 25
Full
Mar 4
Last Quarter
Mar 11
New
Mar 19
First Quarter

Hourly Weather History & Observations

Time (EST) Temp. Windchill Dew Point Humidity Pressure Visibility Wind Dir Wind Speed Gust Speed Precip Events Conditions
12:53 AM 35.1 °F 27.4 °F 30.0 °F 82% 29.94 in 7.0 mi South 10.4 mph - N/A   Overcast
1:44 AM 33.8 °F 27.0 °F 30.2 °F 87% 29.92 in 7.0 mi SW 8.1 mph - N/A   Overcast
1:53 AM 34.0 °F 26.0 °F 30.0 °F 85% 29.94 in 7.0 mi SW 10.4 mph - N/A   Overcast
2:01 AM 33.8 °F 24.8 °F 30.2 °F 87% 29.92 in 8.0 mi SW 12.7 mph - N/A   Overcast
2:53 AM 34.0 °F 25.5 °F 30.0 °F 85% 29.93 in 7.0 mi SW 11.5 mph - N/A   Overcast
3:53 AM 33.1 °F 23.9 °F 28.0 °F 82% 29.92 in 10.0 mi WSW 12.7 mph - N/A   Overcast
4:53 AM 32.0 °F 23.0 °F 27.0 °F 82% 29.93 in 10.0 mi WSW 11.5 mph - N/A   Overcast
5:08 AM 32.0 °F 24.2 °F 26.6 °F 80% 29.92 in 10.0 mi West 9.2 mph - N/A   Overcast
5:53 AM 30.9 °F 21.7 °F 24.1 °F 76% 29.94 in 10.0 mi WSW 11.5 mph - N/A   Overcast
6:07 AM 30.2 °F 20.2 °F 24.8 °F 80% 29.93 in 10.0 mi West 12.7 mph 18.4 mph N/A   Overcast
6:53 AM 30.9 °F 21.7 °F 23.0 °F 72% 29.95 in 10.0 mi WSW 11.5 mph - N/A   Overcast
7:03 AM 30.2 °F 20.8 °F 21.2 °F 69% 29.94 in 10.0 mi WSW 11.5 mph - N/A   Overcast
7:53 AM 30.0 °F 21.1 °F 21.9 °F 72% 29.97 in 10.0 mi SW 10.4 mph - N/A   Overcast
8:53 AM 30.0 °F 20.0 °F 21.0 °F 69% 29.98 in 10.0 mi WSW 12.7 mph - N/A   Overcast
9:53 AM 30.9 °F 22.2 °F 19.9 °F 64% 29.97 in 10.0 mi WSW 10.4 mph 24.2 mph N/A   Overcast
10:53 AM 30.9 °F 19.4 °F 19.0 °F 61% 29.96 in 10.0 mi WSW 17.3 mph - N/A   Mostly Cloudy
11:53 AM 30.9 °F 19.8 °F 19.0 °F 61% 29.96 in 10.0 mi West 16.1 mph - N/A   Scattered Clouds
12:53 PM 32.0 °F 20.8 °F 19.9 °F 61% 29.95 in 10.0 mi West 17.3 mph 21.9 mph N/A   Mostly Cloudy
1:53 PM 32.0 °F 22.1 °F 19.9 °F 61% 29.94 in 10.0 mi WSW 13.8 mph 20.7 mph N/A   Overcast
2:53 PM 32.0 °F 22.1 °F 21.0 °F 64% 29.94 in 10.0 mi WSW 13.8 mph 19.6 mph N/A   Overcast
3:53 PM 30.9 °F 22.2 °F 21.0 °F 67% 29.92 in 10.0 mi WSW 10.4 mph - N/A   Overcast
4:39 PM 30.2 °F 21.3 °F 21.2 °F 69% 29.91 in 10.0 mi West 10.4 mph - N/A   Overcast
4:53 PM 30.9 °F 22.2 °F 21.0 °F 67% 29.94 in 10.0 mi WSW 10.4 mph - N/A   Overcast
5:53 PM 30.9 °F 22.2 °F 19.9 °F 64% 29.95 in 10.0 mi West 10.4 mph - N/A   Overcast
6:53 PM 30.9 °F 21.7 °F 19.9 °F 64% 29.95 in 10.0 mi West 11.5 mph - N/A   Overcast
7:53 PM 30.0 °F 21.1 °F 19.9 °F 66% 29.96 in 10.0 mi WNW 10.4 mph - N/A   Overcast
8:53 PM 30.0 °F 21.1 °F 21.0 °F 69% 29.96 in 10.0 mi West 10.4 mph - N/A   Overcast
9:53 PM 30.0 °F 21.1 °F 19.0 °F 64% 29.96 in 10.0 mi West 10.4 mph - N/A   Overcast
11:53 PM 28.9 °F 19.2 °F 19.9 °F 69% 29.94 in 10.0 mi West 11.5 mph - N/A   Overcast